Back to catalog

STARLINK-35867

AliveCommunicationsVLEO
NORAD 66791·PAYLOAD·🇺🇸 United States

Launched Dec 1, 2025 from Cape Canaveral Space Force Station

Loading…

Next Passes (next 24 hours)

TLE

FreshSource: CelesTrak SupGP

Epoch: Sep 14, 2026, 14:44 UTC

1 66791C 25278A   26257.61437500  .00030627  00000+0  11092-2 0  2570
2 66791  42.9999 127.8393 0001346 259.9306 253.1205 15.27566762    10

Track STARLINK-35867 in real time with AllMySat

Download on the App Store